EW0616 Weather Reports


Display with metric or nautical units.
time (UTC)temp
F
wind
direction
speed
MPH
gust
MPH
rain 1hr
in
rain 24hr
in
rain mn
in
humidity
%
barometer
mb
20260510044320 69 135 0.0 0.0 0.00 0.02 0.02 84 1014.6
20260510043320 69 135 0.0 0.0 0.00 0.02 0.02 84 1014.6
20260510042320 70 135 0.0 0.0 0.00 0.02 0.02 84 1014.4
20260510041419 70 135 0.0 0.0 0.00 0.02 0.02 84 1014.5
20260510040421 71 135 0.0 0.0 0.00 0.02 0.02 84 1014.4
20260510035421 71 135 0.0 0.0 0.00 0.02 0.02 83 1014.3
20260510034422 71 135 0.0 0.0 0.00 0.02 0.02 83 1014.1
20260510033420 72 135 0.0 0.0 0.00 0.02 0.02 82 1014.1
20260510032421 73 135 0.0 0.0 0.00 0.02 0.02 82 1014.0
20260510031420 73 135 0.0 0.0 0.00 0.02 0.02 83 1014.0
20260510025420 74 135 0.0 0.0 0.00 0.02 0.02 82 1013.6
20260510024519 74 135 0.0 0.0 0.00 0.02 0.02 81 1013.4
20260510022619 74 135 0.0 0.0 0.00 0.02 0.02 80 1013.3
20260510021622 75 135 0.0 0.0 0.00 0.02 0.02 79 1013.2
20260510020620 75 135 0.0 0.0 0.00 0.02 0.02 77 1013.1
20260510015621 76 135 0.0 0.0 0.00 0.02 0.02 76 1013.0
20260510014719 77 135 0.0 0.0 0.00 0.02 0.02 75 1012.8
20260510013720 78 135 0.0 0.0 0.00 0.02 0.02 73 1012.7
20260510012721 79 135 0.0 0.0 0.00 0.02 0.02 72 1012.8
20260510011721 80 135 0.0 0.0 0.00 0.02 0.02 70 1012.5
20260510010720 81 135 0.0 0.0 0.00 0.02 0.02 69 1012.5
20260510005720 81 135 0.0 0.0 0.00 0.02 0.02 68 1012.5
20260510004721 82 136 0.0 1.0 0.00 0.02 0.02 66 1012.4
20260510003721 83 159 0.0 2.0 0.00 0.02 0.02 64 1012.3
20260510002736 83 146 0.0 1.0 0.00 0.02 0.02 62 1012.2
20260510001720 84 45 0.0 0.0 0.00 0.02 0.02 59 1012.1
20260509235820 86 148 2.0 4.0 0.00 0.02 0.02 54 1012.0
20260509234820 88 194 0.0 0.0 0.00 0.02 0.02 50 1011.9
20260509233822 88 139 0.0 0.0 0.00 0.02 0.02 48 1011.8
20260509231821 89 115 0.0 2.0 0.00 0.02 0.02 49 1011.7
20260509230820 88 90 0.0 0.0 0.00 0.02 0.02 51 1011.8
20260509224919 89 143 0.0 2.0 0.00 0.02 0.02 52 1011.7
20260509224821 89 136 1.0 6.0 0.00 0.02 0.02 52 1011.7
20260509223819 89 131 0.0 2.0 0.00 0.02 0.02 54 1011.7
20260509222819 89 151 1.0 3.0 0.00 0.02 0.02 55 1011.6
20260509221819 88 157 0.0 1.0 0.00 0.02 0.02 55 1011.5
20260509220820 87 159 1.0 2.0 0.00 0.02 0.02 58 1011.4
20260509215918 85 168 0.0 2.0 0.00 0.02 0.02 58 1011.5
20260509211920 80 151 6.0 9.0 0.00 0.02 0.02 60 1012.0
20260509210018 80 126 4.0 10.0 0.00 0.02 0.02 57 1012.5
20260509205021 81 108 1.0 3.0 0.00 0.02 0.02 55 1012.5
20260509204119 84 116 0.0 2.0 0.00 0.02 0.02 53 1012.7
20260509203120 90 83 4.0 11.0 0.00 0.02 0.02 53 1012.7
20260509202119 92 360 0.0 0.0 0.00 0.02 0.02 50 1012.5
20260509201119 91 287 0.0 1.0 0.00 0.02 0.02 51 1012.5
20260509200119 90 175 1.0 3.0 0.00 0.02 0.02 54 1012.6
20260509195219 89 315 0.0 0.0 0.00 0.02 0.02 55 1012.6
20260509194237 88 194 0.0 4.0 0.00 0.02 0.02 55 1012.7
20260509192419 89 156 1.0 3.0 0.00 0.02 0.02 54 1013.1
20260509191418 89 248 2.0 5.0 0.00 0.02 0.02 56 1013.1
20260509190420 88 240 1.0 3.0 0.00 0.02 0.02 56 1013.2
20260509185520 89 75 0.0 0.0 0.00 0.02 0.02 57 1013.3
20260509184520 88 27 0.0 0.0 0.00 0.02 0.02 58 1013.5
20260509183536 88 186 2.0 4.0 0.00 0.02 0.02 58 1013.7
20260509182519 87 287 0.0 0.0 0.00 0.02 0.02 59 1014.0
20260509181520 86 332 0.0 2.0 0.00 0.02 0.02 64 1014.1
20260509180521 85 202 1.0 3.0 0.00 0.02 0.02 64 1014.1
20260509175519 86 359 2.0 3.0 0.00 0.02 0.02 64 1014.1
20260509173619 85 204 2.0 5.0 0.00 0.02 0.02 66 1014.6
20260509172620 85 177 1.0 4.0 0.00 0.02 0.02 67 1014.7
20260509171636 84 81 0.0 0.0 0.00 0.02 0.02 67 1014.5
20260509164619 83 210 0.0 1.0 0.00 0.02 0.02 70 1014.7
20260509163619 84 283 0.0 0.0 0.00 0.02 0.02 72 1014.9
20260509162619 82 346 0.0 4.0 0.00 0.02 0.02 73 1014.7
20260509161619 81 203 3.0 5.0 0.00 0.02 0.02 76 1014.7
20260509160620 79 195 0.0 4.0 0.00 0.02 0.02 77 1014.7
20260509155717 79 184 1.0 4.0 0.00 0.02 0.02 80 1014.6
20260509154719 77 180 2.0 5.0 0.00 0.02 0.02 82 1014.8
20260509153719 76 212 2.0 5.0 0.00 0.02 0.02 84 1014.9
20260509152818 75 196 1.0 4.0 0.00 0.02 0.02 87 1015.0
20260509151833 74 185 1.0 4.0 0.00 0.02 0.02 88 1014.9
20260509150920 73 163 2.0 4.0 0.00 0.02 0.02 88 1015.1
20260509145933 73 163 0.0 1.0 0.00 0.02 0.02 88 1015.0
20260509145020 72 155 1.0 3.0 0.00 0.02 0.02 88 1014.7
20260509143020 72 171 1.0 3.0 0.00 0.02 0.02 88 1014.6
20260509141020 72 149 2.0 4.0 0.00 0.02 0.02 88 1014.2
20260509135018 72 45 0.0 0.0 0.00 0.02 0.02 88 1014.6
20260509134018 72 45 0.0 0.0 0.00 0.02 0.02 88 1014.7
20260509133020 72 45 0.0 0.0 0.00 0.02 0.02 88 1014.7
20260509132117 72 324 0.0 0.0 0.00 0.02 0.02 88 1014.8
20260509131118 72 52 0.0 0.0 0.00 0.02 0.02 88 1014.7
20260509130118 71 88 0.0 0.0 0.00 0.02 0.02 88 1014.3
20260509125118 71 344 1.0 3.0 0.00 0.02 0.02 88 1014.1
20260509124120 72 337 0.0 0.0 0.00 0.02 0.02 88 1014.2
20260509123118 72 337 0.0 0.0 0.00 0.02 0.02 88 1014.2
20260509122217 72 337 0.0 0.0 0.00 0.02 0.02 88 1014.2
20260509115319 72 337 0.0 0.0 0.00 0.02 0.02 88 1014.4
20260509114333 72 360 0.0 0.0 0.00 0.02 0.02 88 1014.3
20260509113418 72 302 0.0 0.0 0.00 0.02 0.02 88 1014.7
20260509112517 72 292 0.0 0.0 0.00 0.02 0.02 88 1015.0
20260509111538 72 337 0.0 0.0 0.00 0.02 0.02 88 1015.1
20260509110620 72 26 0.0 0.0 0.00 0.02 0.02 88 1015.1
20260509110534 72 29 0.0 0.0 0.00 0.02 0.02 88 1015.3
20260509104633 72 17 0.0 0.0 0.01 0.02 0.02 88 1015.2
20260509102719 72 337 0.0 0.0 0.01 0.02 0.02 87 1015.0
20260509101719 72 112 0.0 0.0 0.01 0.02 0.02 87 1014.6
20260509100817 72 112 0.0 0.0 0.01 0.02 0.02 87 1014.3
20260509095817 72 112 0.0 0.0 0.01 0.02 0.02 86 1014.1
20260509093818 72 112 0.0 0.0 0.01 0.01 0.01 86 1014.0
20260509092917 72 112 0.0 0.0 0.01 0.01 0.01 86 1014.0
20260509091919 72 112 0.0 0.0 0.01 0.01 0.01 86 1013.8
20260509090919 72 112 0.0 0.0 0.01 0.01 0.01 86 1013.7
20260509085918 72 180 0.0 0.0 0.01 0.01 0.01 86 1013.8
20260509085017 72 315 0.0 0.0 0.00 0.00 0.00 86 1013.8
20260509084018 72 315 0.0 0.0 0.00 0.00 0.00 86 1014.0
20260509083018 72 45 0.0 0.0 0.00 0.00 0.00 86 1014.2
20260509081118 72 157 0.0 0.0 0.00 0.00 0.00 85 1014.4
20260509075120 72 135 0.0 0.0 0.00 0.00 0.00 85 1014.1
20260509074118 72 90 0.0 0.0 0.00 0.00 0.00 85 1013.8
20260509073135 72 157 0.0 0.0 0.00 0.00 0.00 85 1013.8
20260509072118 72 157 0.0 0.0 0.00 0.00 0.00 85 1014.1
20260509071217 72 157 0.0 0.0 0.00 0.00 0.00 85 1014.1
20260509070220 72 157 0.0 0.0 0.00 0.00 0.00 85 1014.4
20260509065219 72 157 0.0 0.0 0.00 0.00 0.00 85 1014.3
20260509062217 72 151 1.0 2.0 0.00 0.00 0.00 85 1013.8
20260509061233 72 169 1.0 3.0 0.00 0.00 0.00 85 1013.9
20260509060235 72 154 1.0 3.0 0.00 0.00 0.00 85 1013.9
20260509055217 72 154 2.0 3.0 0.00 0.00 0.00 85 1013.6
20260509054217 72 170 3.0 5.0 0.00 0.00 0.00 85 1013.9
20260509053218 72 152 3.0 5.0 0.00 0.00 0.00 86 1013.9
20260509052317 72 167 0.0 4.0 0.00 0.00 0.00 86 1013.8
20260509051317 71 147 3.0 6.0 0.00 0.00 0.00 86 1013.6
20260509050319 70 135 0.0 0.0 0.00 0.00 0.00 85 1013.4
20260509045414 70 135 0.0 0.0 0.00 0.00 0.00 85 1013.6